Flag for Barbados Weather past 2 weeks in Bridgetown, Barbados

Now
81 °F

Scattered clouds.


Feels Like: 84 °F
Forecast: 78 / 84 °F
Wind: 22 mph from East

Location: Grantley Adams

Current Time: Jan 28, 2015 at 9:13:45 AM

Latest Report: Jan 28, 2015 at 8:00 AM


Visibility: N/A

Pressure: 29.98 "Hg

Humidity: 70%

Dew point: 70 °F

Location of BridgetownLocation

Historic Weather in Bridgetown — Graph

°F

Bridgetown temperature yesterday

Maximum temperature yesterday: 84 °F (at 11:00 AM)
Minimum temperature yesterday: 77 °F (at 1:00 AM)
Average temperature yesterday: 80 °F

Past Weeks' High & Low Weather Summary

 TemperatureHumidityPressure
High86 °F (Jan 22, 1:00 PM)94% (Jan 24, 3:00 AM)30.04 "Hg (Jan 24, 3:00 AM)
Low73 °F (Jan 19, 11:00 PM)58% (Jan 27, 3:00 PM)29.89 "Hg (Jan 20, 4:00 PM)
Average79 °F78%29.97 "Hg
* Reported Jan 13 8:00 AM — Jan 28 8:00 AM, Bridgetown, Weather by CustomWeather, © 2014

Note: Actual official high and low records may vary slightly from our data, if they occured in-between our weather recording intervals... More about our weather records

Advertising

Bridgetown weather history for previous 24 hours

 ConditionsComfort  
Time TempWeatherWind HumidityBarometerVisibility
8:00 AM
Jan 28
81 °FScattered clouds.22 mph70%29.98 "HgN/A
7:00 AM79 °FPassing clouds.22 mph70%29.98 "HgN/A
3:00 AM77 °FSprinkles. Passing clouds.18 mph83%29.92 "HgN/A
2:00 AM77 °FPassing clouds.18 mph79%29.95 "HgN/A
1:00 AM77 °FPassing clouds.20 mph79%29.98 "HgN/A
12:00 AM77 °FPassing clouds.22 mph79%29.98 "HgN/A
11:00 PM
Jan 27
77 °FPassing clouds.20 mph83%30.01 "HgN/A
10:00 PM77 °FPassing clouds.17 mph79%30.01 "HgN/A
9:00 PM77 °FPassing clouds.14 mph89%30.01 "HgN/A
8:00 PM77 °FPassing clouds.16 mph89%29.98 "HgN/A
7:00 PM79 °FPassing clouds.20 mph79%29.98 "HgN/A
6:00 PM79 °FPassing clouds.21 mph79%29.95 "HgN/A
5:00 PM81 °FScattered clouds.20 mph74%29.95 "HgN/A
4:00 PM82 °FScattered clouds.18 mph66%29.95 "HgN/A
3:00 PM84 °FPassing clouds.20 mph58%29.95 "HgN/A
2:00 PM82 °FPassing clouds.18 mph66%29.98 "HgN/A
1:00 PM84 °FScattered clouds.18 mph62%30.01 "HgN/A
12:00 PM84 °FScattered clouds.20 mph62%30.04 "HgN/A
11:00 AM84 °FPassing clouds.21 mph62%30.04 "HgN/A
10:00 AM82 °FPassing clouds.22 mph62%30.04 "HgN/A
9:00 AM82 °FPassing clouds.24 mph66%30.04 "HgN/A
Weather by CustomWeather, © 2014

See weather overviewHow to use our weather pages